• Join FlightAware (Why Join?)
  • Login
  • US Flag GB Flag 
21:07 EDT


 

Airport Tracker/Info


-or-


 

Live Flight TrackerFlight Track Log ✈ SWA655 ✈ 07-Apr-2013 ✈ KLAX - KLAS

Flight Track Log - Related Links

Times and Time Zones

All times are in EDT time to prevent confusion due to time zone crossing. See the SWA655 flight status page for this flight to view local times or setup timezone preferences in your user account.

Time Position Orientation Groundspeed Altitude Reporting Facility
EDT Latitude Longitude Course Direction KTS MPH feet Rate Location/Type
19:11 33.9358 -118.5428 254° West 225 259 4,000  Level Los Angeles Center
19:12 33.8669 -118.5553 189° South 292 336 7,100 3,000 Climbing Los Angeles Center
19:13 33.8867 -118.4747 74° East 284 327 10,300 2,820 Climbing Los Angeles Center
19:14 33.9467 -118.4094 42° Northeast 297 342 13,000 2,700 Climbing Los Angeles Center
19:15 34.1864 -117.9605 59° Northeast  Level FlightAware Approximate
19:15 34.0019 -118.3072 57° Northeast 358 412 15,900  Level Los Angeles Center
19:16 34.0631 -118.2042 54° Northeast 372 428 19,200 3,060 Climbing Los Angeles Center
19:17 34.1386 -118.0708 56° Northeast 399 459 22,300 2,700 Climbing Los Angeles Center
19:18 34.2036 -117.9547 56° Northeast 413 475 24,900 2,760 Climbing Los Angeles Center
19:19 34.2689 -117.8383 56° Northeast 417 480 28,100 1,980 Climbing Los Angeles Center
19:20 34.3319 -117.7261 56° Northeast 406 467 29,000 420 Climbing Los Angeles Center
19:21 34.4067 -117.5908 56° Northeast 453 521 29,000  Level Los Angeles Center
19:22 34.4781 -117.4614 56° Northeast 462 532 29,000  Level Los Angeles Center
19:23 34.5494 -117.3317 56° Northeast 466 536 29,000  Level Los Angeles Center
19:24 34.6208 -117.2014 56° Northeast 466 536 29,000  Level Los Angeles Center
19:25 34.7064 -117.0439 57° Northeast 468 539 29,000  Level Los Angeles Center
19:26 34.7789 -116.9133 56° Northeast 469 540 29,000  Level Los Angeles Center
19:27 34.8497 -116.7814 57° Northeast 468 539 29,000  Level Los Angeles Center
19:28 34.9222 -116.6494 56° Northeast 470 541 29,000 -1,080 Level Los Angeles Center
19:29 35.0017 -116.5269 52° Northeast 466 536 26,800 -2,460 Descending Los Angeles Center
19:30 35.1036 -116.3989 46° Northeast 443 510 24,000 -1,380 Descending Los Angeles Center
19:31 35.1869 -116.2936 46° Northeast 435 501 24,000 -300 Level Los Angeles Center
19:32 35.2744 -116.1858 45° Northeast 446 513 23,500 -1,500 Descending Los Angeles Center
19:33 35.3558 -116.0817 46° Northeast 432 497 21,000 -2,340 Descending Los Angeles Center
19:34 35.4356 -115.9811 46° Northeast 420 483 18,700 -2,400 Descending Los Angeles Center
19:35 35.5167 -115.8781 46° Northeast 404 465 16,100 -2,520 Descending Los Angeles Center
19:36 35.6053 -115.7650 46° Northeast 389 448 13,500 -1,860 Descending Los Angeles Center
19:37 35.6389 -115.7239 45° Northeast 381 438 13,300 -540 Descending Los Angeles Center
19:37 35.6744 -115.6783 46° Northeast 361 415 13,000 -300 Descending Los Angeles Center
19:38 35.7039 -115.6447 43° Northeast 328 377 13,000  Level Los Angeles Center
19:39 35.7417 -115.5947 47° Northeast 320 368 13,000  Level Los Angeles Center
19:39 35.7672 -115.5769 29° Northeast 312 359 13,000  Level Los Angeles Center
19:40 35.8203 -115.5711 North 302 348 13,000 -120 Level Los Angeles Center
19:40 35.8511 -115.5656 North 297 342 12,900 -720 Descending Los Angeles Center
19:41 35.8925 -115.5478 19° North 301 346 12,300 -900 Descending Los Angeles Center
19:41 35.9361 -115.5300 18° North 299 344 12,000 -540 Descending Los Angeles Center
19:42 35.9694 -115.4758 53° Northeast 301 346 11,800 -540 Descending Los Angeles Center
19:42 35.9875 -115.4472 52° Northeast 310 357 11,500 -720 Descending Los Angeles Center
19:43 36.0186 -115.3933 54° Northeast 301 346 11,100 -720 Descending Los Angeles Center
19:43 36.0289 -115.3592 70° East 296 341 10,800 -900 Descending Los Angeles Center
19:44 36.0253 -115.2989 94° East 301 346 10,200 -1,020 Descending Los Angeles Center
19:44 36.0231 -115.2628 94° East 283 326 9,800 -1,200 Descending Los Angeles Center
19:45 36.0181 -115.2042 96° East 284 327 9,000 -1,200 Descending Los Angeles Center
19:45 36.0158 -115.1694 95° East 275 316 8,600 -780 Descending Los Angeles Center
19:46 36.0125 -115.1114 94° East 277 319 8,200 -720 Descending Los Angeles Center
19:46 36.0094 -115.0706 95° East 261 300 7,800 -780 Descending Los Angeles Center
19:47 36.0061 -115.0256 95° East 261 300 7,400 -1,140 Descending Los Angeles Center
19:47 36.0061 -114.9864 90° East 248 285 6,700 -1,800 Descending Los Angeles Center
19:48 36.0442 -114.9542 34° Northeast 252 290 5,600 -1,620 Descending Los Angeles Center
19:48 36.0653 -114.9694 330° Northwest 238 274 5,100 -300 Descending Los Angeles Center
19:49 36.0833 -114.9886 319° Northwest 233 268 5,300 -720 Climbing Los Angeles Center
19:49 36.0739 -115.0200 250° West 160 184 4,400 -2,040 Descending Los Angeles Center
19:50 36.0722 -115.0472 266° West 178 205 3,200 -1,500 Descending Los Angeles Center
19:50 36.0736 -115.0678 275° West 138 159 2,900 -720 Descending Los Angeles Center
19:51 36.0739 -115.0967 271° West 155 178 2,500 -480 Descending Los Angeles Center
19:52 36.0742 -115.1503 270° West 149 171 2,100 -420 Descending Los Angeles Center